Lid_Strength_Index
3 6 8 8 12 14 16 14 12 12 11 9 8 7 7 8 9 11 3 1 0 0 -0 -1 -1 -2 -1 -1 -1 -1 -1 -1 -1 -1 -1 -1 -1 -1 -1 -1 -1 -1 -1 -1 -1 -1 -1 -1 -1
4 7 10 11 15 17 17 14 12 11 9 8 7 8 8 9 5 5 4 1 -0 -0 -0 -1 -1 -1 -1 -1 -1 -1 -0 -0 -0 -0 -1 -1 -1 -1 -0 -0 0 0 -0 -0 -0 -1 -1 -1 -1
5 7 12 14 16 17 16 13 12 10 8 8 9 7 7 7 5 4 3 0 0 0 -0 -0 -1 -1 -1 -1 -1 -0 1 -0 -0 -0 -0 -0 0 0 0 1 1 1 1 0 -0 -0 -0 -0 -1
8 11 14 17 16 14 14 12 10 10 8 7 8 8 6 4 4 3 1 1 1 1 0 -0 -1 -1 -1 -1 -0 1 0 -0 -0 0 0 1 1 1 2 1 1 1 1 1 0 0 0 0 -0
9 12 16 19 17 15 13 11 11 10 9 9 8 9 7 5 2 2 1 1 1 1 0 -0 -1 -1 -1 0 1 1 -0 0 1 1 1 2 2 2 1 1 1 1 1 1 1 1 1 1 0
13 14 18 19 16 14 13 12 12 11 9 8 9 8 7 5 3 3 2 2 1 1 0 0 1 -0 -1 -0 0 -0 1 1 2 2 2 2 2 2 2 2 2 1 2 2 1 1 1 1 0
13 15 17 20 16 14 13 11 12 11 11 10 9 9 8 5 4 3 2 2 2 2 2 1 1 1 1 -0 -0 0 1 2 3 3 2 2 2 2 2 2 2 2 2 2 1 1 1 1 0
12 14 17 19 17 13 12 11 10 10 11 9 9 10 9 5 3 3 2 3 3 2 2 2 2 3 3 3 2 1 2 3 4 3 3 2 3 2 3 3 3 2 2 2 2 2 1 1 0
11 15 17 18 16 15 12 12 10 9 10 10 8 8 7 4 3 3 4 4 3 2 2 3 4 4 4 5 4 3 3 3 3 3 2 4 5 5 5 3 2 2 2 2 2 2 1 0 1
13 16 17 15 14 13 11 11 10 11 11 10 8 5 4 3 4 4 4 4 4 4 3 3 3 4 5 5 7 7 6 6 6 5 5 5 5 5 5 5 3 3 3 3 2 1 1 1 3
13 16 15 14 12 10 11 11 10 11 12 11 10 7 6 6 5 4 5 4 4 4 3 3 3 4 6 7 7 7 7 7 6 6 5 5 5 6 6 6 6 7 6 6 4 3 3 3 3
14 13 14 12 12 11 12 10 11 11 11 9 9 7 7 7 6 6 5 4 4 4 4 4 5 5 7 7 7 7 7 7 7 6 5 6 6 7 7 7 7 7 7 6 4 4 4 4 3
13 13 13 13 13 11 10 11 11 11 9 9 8 8 9 10 10 9 8 6 4 4 4 4 5 6 7 7 7 7 7 7 6 6 5 6 6 7 7 7 7 7 6 5 4 5 4 4 3
12 12 13 13 13 11 10 11 10 11 9 9 9 9 9 10 11 10 10 9 6 4 4 5 6 6 6 7 7 7 7 7 6 6 6 5 6 7 7 7 7 6 5 4 3 4 4 4 4
11 14 14 13 13 12 11 11 12 10 8 9 9 9 9 10 9 10 10 9 9 5 5 5 6 6 7 7 7 7 6 6 6 6 5 6 6 6 7 8 7 4 3 3 3 4 4 4 4
13 14 17 14 13 10 12 13 12 10 9 10 10 9 9 10 10 10 9 8 8 6 6 6 6 7 7 7 7 6 6 6 6 6 7 6 6 6 7 7 5 3 4 4 5 5 5 5 5
15 18 17 15 12 12 13 15 12 10 11 12 11 10 9 10 9 9 9 7 8 7 7 7 7 7 7 7 7 6 6 6 7 7 7 7 7 6 7 5 4 4 4 5 5 5 6 6 5
17 17 16 16 13 12 14 15 13 12 13 13 11 11 11 10 10 9 9 8 8 9 9 8 7 7 7 7 7 7 6 6 7 7 7 7 7 6 5 4 4 4 4 4 5 6 6 6 6
15 15 16 14 13 13 16 15 13 13 13 14 13 13 12 11 9 9 9 8 8 8 8 8 7 7 7 7 7 7 8 7 7 7 7 7 7 6 5 4 4 4 4 4 5 6 6 6 6
15 16 15 13 13 14 16 16 14 14 14 14 13 13 12 11 10 8 8 9 9 9 8 8 7 6 6 7 7 7 7 7 7 7 7 7 6 6 5 4 4 4 4 4 5 6 6 6 6
15 16 16 14 13 14 16 18 16 15 14 14 13 13 12 10 9 9 9 9 9 9 9 8 7 7 6 6 6 6 6 7 7 7 7 7 6 6 5 4 4 4 3 4 4 5 6 7 7
16 14 13 14 16 20 15 21 19 16 17 16 15 15 12 12 11 11 11 11 11 11 9 9 9 8 7 7 7 8 8 8 7 7 7 7 6 6 5 4 4 3 3 4 4 4 6 6 8
13 12 12 13 15 17 17 19 19 16 17 17 15 14 13 13 13 13 13 12 13 12 12 11 11 10 9 8 7 6 6 7 6 6 5 5 6 6 5 3 3 4 3 3 4 4 5 4 7
11 11 11 13 15 21 17 18 18 18 16 16 15 15 15 15 14 14 13 13 14 14 13 13 12 11 10 9 8 7 6 6 6 6 6 5 4 4 4 3 3 3 3 3 3 3 4 4 6
11 13 18 19 19 20 17 17 19 16 15 15 16 16 16 16 15 15 16 16 15 15 14 14 13 13 12 11 11 10 9 7 7 6 6 6 6 5 5 4 4 3 3 3 3 3 4 3 4
13 14 17 22 21 19 17 18 18 16 15 15 15 16 17 17 17 16 15 15 15 15 15 14 14 14 13 13 13 12 11 10 10 10 9 8 7 6 5 4 4 3 3 3 3 3 3 3 4
14 16 13 17 20 19 18 19 16 16 17 16 17 17 18 17 17 16 15 15 15 15 15 15 14 14 14 14 14 14 13 12 12 12 11 10 10 8 8 7 5 5 4 4 3 4 4 4 4
14 11 16 17 22 22 20 19 18 18 18 17 18 18 17 17 17 16 16 16 15 15 15 15 15 15 15 14 14 14 14 13 13 13 13 12 11 11 10 9 8 7 6 6 6 5 4 4 4
14 15 15 14 17 19 20 19 16 16 16 17 17 17 17 17 17 17 17 17 16 16 17 17 17 17 17 16 16 16 15 15 15 15 14 13 12 12 11 11 10 9 9 9 9 9 8 7 6
13 14 14 16 18 18 18 19 16 15 16 16 17 17 17 17 18 18 18 19 18 18 18 18 18 18 17 17 17 17 16 16 16 16 16 15 14 13 13 13 12 11 11 10 10 10 10 9 9